Location: Newark
(29.9790°N, 31.1340°E)
Time: 01:10:07
(UTC+00:00)

Transit 2A Rocket - Pass Details

Date: 20 January 2020
Orbit: 591 x 912 km, 66.7° (Epoch: 27 February)

Event Time Altitude Azimuth Distance (km) Brightness Sun altitude
Rises 04:13:13 0° 218° (SW) 2,896 7.8 -8.5°
Reaches altitude 10° 04:15:36 10° 225° (SW) 1,961 6.9 -8.0°
Maximum altitude 04:19:46 43° 297° (WNW) 841 4.8 -7.2°
Drops below altitude 10° 04:23:51 10° 10° (N) 1,921 7.0 -6.3°
Sets 04:26:10 0° 17° (NNE) 2,829 7.9 -5.9°
